Weather History for KLVK - November, 2013

Change the Weather History Date:

Monday, November 25, 2013

  Actual Average Record
Temperature  
Mean Temperature 51 °F 50 °F  
Max Temperature 64 °F 61 °F 77 °F (1932)
Min Temperature 38 °F 40 °F 28 °F (1955)
Degree Days  
Heating Degree Days 14 15  
Month to date heating degree days 184 267  
Since 1 July heating degree days 263 395  
Cooling Degree Days 0 0  
Month to date cooling degree days 0 0  
Year to date cooling degree days 1039 829  
Growing Degree Days 2 (Base 50)    
Moisture  
Dew Point 40 °F    
Average Humidity 65    
Maximum Humidity 86    
Minimum Humidity 44    
Precipitation  
Precipitation 0.00 in 0.06 in 0.70 in (1970)
Month to date precipitation 1.52 1.66  
Year to date precipitation 4.11 12.71  
Since 1 July precipitation 1.99 2.81  
Sea Level Pressure  
Sea Level Pressure 30.28 in    
Wind  
Wind Speed 3 mph (ENE)    
Max Wind Speed 12 mph    
Max Gust Speed 15 mph    
Visibility 8 miles    
Events      
T = Trace of Precipitation, MM = Missing Value Source: NWS Daily Summary

Daily Weather History Graph

Daily Weather History Graph

Search for Another Location

Airport or City:

Trip Planner

Search our weather history database for the weather conditions in past years. The results will help you decide how hot, cold, wet, or windy it might be!

Date:

Astronomy

Nov. 25, 2013 Rise Set
Actual Time 6:58 AM PST 4:50 PM PST
Civil Twilight 6:29 AM PST 5:19 PM PST
Nautical Twilight 5:57 AM PST 5:51 PM PST
Astronomical Twilight 5:25 AM PST 6:22 PM PST
Moon No Moon Rise 12:22 PM PST (11/25)
Length of Visible Light 10h 49m
Length of Day
9h 52m
Waning Gibbous, 50% of the Moon is Illuminated
Nov 25
Waning Gibbous
Dec 2
New
Dec 9
First Quarter
Dec 17
Full
Dec 25
Last Quarter

Hourly Weather History & Observations

Time (PST) Temp. Windchill Dew Point Humidity Pressure Visibility Wind Dir Wind Speed Gust Speed Precip Events Conditions
12:53 AM 41.0 °F 38.0 °F 37.0 °F 86% 30.27 in 6.0 mi ENE 4.6 mph - N/A   Clear
1:53 AM 42.1 °F - 37.0 °F 82% 30.27 in 7.0 mi Calm Calm - N/A   Clear
2:53 AM 41.0 °F - 37.0 °F 86% 30.27 in 6.0 mi Calm Calm - N/A   Clear
3:53 AM 41.0 °F - 36.0 °F 82% 30.27 in 6.0 mi Calm Calm - N/A   Haze
4:53 AM 39.9 °F - 35.1 °F 83% 30.27 in 6.0 mi Calm Calm - N/A   Haze
5:53 AM 39.0 °F - 35.1 °F 86% 30.28 in 6.0 mi Calm Calm - N/A   Clear
6:53 AM 39.9 °F - 35.1 °F 83% 30.30 in 7.0 mi Calm Calm - N/A   Clear
7:53 AM 41.0 °F - 37.0 °F 86% 30.32 in 6.0 mi Calm Calm - N/A   Clear
8:53 AM 46.0 °F - 39.9 °F 79% 30.34 in 5.0 mi Calm Calm - N/A   Haze
9:53 AM 50.0 °F - 41.0 °F 71% 30.34 in 9.0 mi Calm Calm - N/A   Clear
10:53 AM 55.0 °F - 42.1 °F 62% 30.32 in 8.0 mi Variable 3.5 mph - N/A   Clear
11:53 AM 60.1 °F - 43.0 °F 53% 30.30 in 9.0 mi Calm Calm - N/A   Clear
12:53 PM 64.0 °F - 42.1 °F 45% 30.28 in 9.0 mi NE 8.1 mph - N/A   Clear
1:53 PM 64.0 °F - 42.1 °F 45% 30.27 in 10.0 mi East 11.5 mph - N/A   Clear
2:53 PM 64.0 °F - 42.1 °F 45% 30.27 in 10.0 mi East 10.4 mph - N/A   Clear
3:53 PM 61.0 °F - 43.0 °F 52% 30.27 in 9.0 mi East 9.2 mph - N/A   Clear
4:53 PM 57.0 °F - 43.0 °F 59% 30.26 in 9.0 mi East 6.9 mph - N/A   Clear
5:53 PM 54.0 °F - 42.1 °F 64% 30.26 in 9.0 mi ENE 5.8 mph - N/A   Clear
6:53 PM 53.1 °F - 42.1 °F 66% 30.26 in 9.0 mi Calm Calm - N/A   Clear
7:53 PM 51.1 °F - 41.0 °F 68% 30.27 in 9.0 mi Calm Calm - N/A   Clear
8:53 PM 48.9 °F - 42.1 °F 77% 30.28 in 7.0 mi Calm Calm - N/A   Clear
9:53 PM 45.0 °F 42.6 °F 39.9 °F 82% 30.28 in 7.0 mi East 4.6 mph - N/A   Clear
10:53 PM 46.0 °F - 39.0 °F 76% 30.29 in 7.0 mi Calm Calm - N/A   Clear
11:53 PM 45.0 °F 42.6 °F 39.9 °F 82% 30.28 in 7.0 mi East 4.6 mph - N/A   Clear